This is the latest recevied weather packets stored in our database for station/object AA8FM-13. If no packets are shown the sender has not sent any weather packets the latest 10 day(s).
| Time | Temp. | Humidity | Pressure | Rain* | Wind** | Luminosity | Snow |
|---|---|---|---|---|---|---|---|
| 1778111893 | 11.67° C | 98% | 1009.1 hPa | 0 mm | - | 1 W/m² | - |
| 1778111589 | 11.67° C | 98% | 1009.4 hPa | 0 mm | - | 1 W/m² | - |
| 1778111286 | 11.67° C | 97% | 1009.4 hPa | 0 mm | - | 1 W/m² | - |
| 1778110983 | 11.67° C | 98% | 1010 hPa | 0 mm | - | 2 W/m² | - |
| 1778110681 | 12.22° C | 98% | 1009.3 hPa | 0 mm | - | 2 W/m² | - |
| 1778110377 | 12.22° C | 97% | 1009.4 hPa | 0 mm | - | 2 W/m² | - |
| 1778110074 | 12.22° C | 96% | 1009.2 hPa | 0 mm | - | 3 W/m² | - |
| 1778109768 | 12.22° C | 96% | 1009.4 hPa | 0 mm | - | 3 W/m² | - |
| 1778109466 | 12.22° C | 95% | 1009.3 hPa | 0 mm | - | 3 W/m² | - |
| 1778109164 | 12.22° C | 95% | 1009.4 hPa | 0 mm | - | 5 W/m² | - |
| 1778108860 | 12.22° C | 95% | 1009.3 hPa | 0 mm | - | 5 W/m² | - |
| 1778108557 | 12.22° C | 95% | 1009.3 hPa | 0 mm | - | 6 W/m² | - |
| 1778108254 | 12.22° C | 95% | 1009.5 hPa | 0 mm | - | 5 W/m² | - |
| 1778107951 | 12.22° C | 95% | 1009.2 hPa | 0 mm | - | 6 W/m² | - |
| 1778107160 | 12.78° C | 96% | 1009 hPa | 0 mm | - | 23 W/m² | - |
| 1778106855 | 12.78° C | 96% | 1009 hPa | 0 mm | - | 23 W/m² | - |
| 1778106553 | 12.78° C | 95% | 1009 hPa | 0 mm | - | 24 W/m² | - |
| 1778106249 | 12.22° C | 95% | 1008.9 hPa | 0 mm | - | 22 W/m² | - |
| 1778105946 | 12.22° C | 95% | 1008.9 hPa | 0 mm | - | 29 W/m² | - |
| 1778105642 | 12.22° C | 96% | 1009 hPa | 0 mm | - | 27 W/m² | - |
| 1778105335 | 12.22° C | 96% | 1008.9 hPa | 0 mm | - | 16 W/m² | - |
| 1778105030 | 12.22° C | 96% | 1008.5 hPa | 0 mm | - | 19 W/m² | - |
| 1778104726 | 12.22° C | 96% | 1008.9 hPa | 0 mm | - | 19 W/m² | - |
| 1778104422 | 12.22° C | 95% | 1008.8 hPa | 0 mm | - | 20 W/m² | - |
| 1778104113 | 12.22° C | 95% | 1008.8 hPa | 0 mm | - | 20 W/m² | - |
* Rain latest hour (hover to see other rain measurements)
** Current wind speed in m/s (hover to see current wind gust speed)